Погода в Картузах

Польша     54°20′04″N   18°11′50″E
темп.,
°C
ветер,
м/с
пор.,
м/с
влажн.,
%
обл.,
%
осадки,
мм/ч
давл.,
гПа
погр.,
м
28 февраля, вс
вс2801:00+2з598271 0.0 1033275
04:00+2з7139651 0.0 1031322
07:00+2зсз8139459 0.0 1031443
10:00+3зсз8129198 0.0 1031443
13:00+4сз7118492 0.0 1031376
16:00+4сз69861 0.0 1031276
19:00+2сз69953 0.0 1032207
22:00+1сз47931 0.0 1033136
1 марта, пн
пн101:00+2сз34871 0.0 103446
04:00+2сз33800 0.0 103329
07:00+1з34880 0.0 103475
10:00+6зюз57710 0.0 1033235
13:00+8зюз710660 0.0 1033445
16:00+7з711690 0.0 1031451
19:00+4з715770 0.0 1031320
22:00+3зсз815860 0.0 1030358
2 марта, вт
вт201:00+3зсз714910 0.0 1031382
04:00+2зсз6129511 0.0 1029346
07:00+2зсз6119725 0.0 1030281
10:00+4зсз699088 0.0 1030347
13:00+6зсз688385 0.0 1030395
16:00+6зсз588458 0.0 1030401
19:00+3зсз489577 0.0 1030254
22:00+2сз359757 0.0 1030193
3 марта, ср
ср301:00+2зсз239675 0.0 1031175
04:00+1з229698 0.0 103071
07:00+1з239699 0.0 102998
10:00+5зсз3579100 0.0 1030341
13:00+8з456552 0.0 1028473
16:00+8з46681 0.0 1026454
19:00+4з34860 0.0 102454
22:00+3зюз46830 0.0 1023108
4 марта, чт
чт401:00+2зюз49870 0.0 1020143
04:00+2зюз598763 0.0 1017158
07:00+2зюз5109449 0.0 1015203
10:00+5з698495 0.0 1013429
13:00+7з6107397 0.0 1012718
16:00+5зсз5988100 0.1 1010662
19:00+3сз4789100 0.1 1009554
22:00+1ссв6896100 0.2 1010432